Regional Weather Roundup
Issued by NWS Upton, NY

Current Version | Previous Version | Graphics & Text | Print | Product List | Glossary Off
Versions: 1 2 3 4 5 6 7 8 9 10 11 12 13 14 15 16 17 18 19 20 21 22 23 24 25 26 27 28 29 30 31 32 33 34 35 36 37 38 39 40 41 42 43 44 45 46 47 48 49 50

000
ASUS41 KOKX 071918
RWROKX

REGIONAL WEATHER ROUNDUP
NATIONAL WEATHER SERVICE NEW YORK NY
300 PM EDT TUE JUL 07 2015

NOTE: "FAIR" INDICATES FEW OR NO CLOUDS BELOW 12,000 FEET WITH NO
SIGNIFICANT WEATHER AND/OR OBSTRUCTIONS TO VISIBILITY.

NYZ071-072-176-178-NJZ106-104-072000-
NEW YORK CITY METRO AREA


CITY           SKY/WX    TMP DP  RH WIND       PRES   REMARKS
CENTRAL PARK   SUNNY     85  70  60 S9        29.99F
LAGUARDIA APRT MOSUNNY   84  70  62 S16       29.96F
KENNEDY INTL   PTSUNNY   83  73  72 S15       29.99F
NEWARK/LIBERTY PTSUNNY   88  71  57 S6        29.96F HX  94
BRNX BOT. GARD   N/A     82  72  69 SE6       29.98F
TETERBORO      PTSUNNY   86  69  56 S13G24    29.95F HX  90
$$

NYZ177-179-078>081-072000-
LONG ISLAND NEW YORK

CITY           SKY/WX    TMP DP  RH WIND       PRES   REMARKS
FARMINGDALE    CLOUDY    80  74  81 S15       30.01S
ISLIP          CLOUDY    79  73  82 S14G21    29.99F
SHIRLEY        PTSUNNY   80  73  79 S13       30.02F
WESTHAMPTON    CLOUDY    77  74  90 S9G18     30.04F FOG
MONTAUK POINT    N/A     78  72  81 S9        30.04F
$$

NYZ052-065-067-072000-
HUDSON VALLEY

CITY           SKY/WX    TMP DP  RH WIND       PRES   REMARKS
WHITE PLAINS   PTSUNNY   85  73  67 S14G22    29.98F HX  91
NEWBURGH       MOSUNNY   84  73  70 SW12      29.97F HX  91
MONTGOMERY     MOSUNNY   88  71  57 SW15      29.94F HX  94
POUGHKEEPSIE   PTSUNNY   86  73  65 SW6       29.93F HX  93
ALBANY         LGT RAIN  77  72  84 SW9       29.94R
$$

NJZ001-105-106-008-010-013-015-019>022-104-072000-
NEW JERSEY

CITY           SKY/WX    TMP DP  RH WIND       PRES   REMARKS
NEWARK/LIBERTY PTSUNNY   88  71  57 S6        29.96F HX  94
TETERBORO      PTSUNNY   86  69  56 S13G24    29.95F HX  90
CALDWELL       MOSUNNY   87  68  52 VRB7      29.96F HX  90
MORRISTOWN     MOSUNNY   91  72  52 W12G18    29.97F HX  98
SOMERVILLE     PTSUNNY   86  69  56 VRB3      29.95F HX  90
SUSSEX         NOT AVBL
ANDOVER          N/A     84  71  65 SW7       29.98F
TRENTON        MOSUNNY   86  69  56 SW12      29.97F HX  90
MILLVILLE      PTSUNNY   86  70  58 VRB6G17   30.01F HX  90
ATLANTIC CITY  MOSUNNY   88  70  55 SW15G22   30.00F HX  93
WRIGHTSTOWN    MOSUNNY   89  72  58 SW14      29.95F HX  96
TOMS RIVER     MOSUNNY   90  70  51 SW15      29.98F HX  95
BELMAR         MOSUNNY   82  73  74 SE8       29.98F THUNDER
$$

PAZ047>061-062-071-072000-
EASTERN PENNSYLVANIA

CITY           SKY/WX    TMP DP  RH WIND       PRES   REMARKS
PHILADELPHIA   MOSUNNY   89  69  51 SW16      29.98F HX  93
ALLENTOWN      MOSUNNY   86  72  62 SW12      29.97F HX  92
SCRANTON       SUNNY     84  68  58 SW13      29.98F
$$

CTZ002-004>006-009-010-012-RIZ004-006-007-MAZ004-011-015-072000-
SOUTHERN NEW ENGLAND
 IN CT

CITY           SKY/WX    TMP DP  RH WIND       PRES   REMARKS
BRADLEY INTL   PTSUNNY   81  74  79 S9        29.97F
HARTFORD       PTSUNNY   83  72  69 S13G22    29.97F
DANBURY        LGT RAIN  78  71  79 SW6       29.99F
WTRBRY/OXFORD    N/A     81  72  74 S12G18    30.02F
BRIDGEPORT     SUNNY     83  72  69 S10       29.98F
MERIDEN        PTSUNNY   83  72  69 S13G22    29.98F
NEW HAVEN      MOSUNNY   80  73  79 SE17      30.00F
CHESTER        CLOUDY    79  73  83 S12G18    30.03S
GROTON         PTSUNNY   76  71  85 S14       30.02F
WILLIMANTIC    PTSUNNY   81  71  71 S15G28    30.01F

 IN RI

CITY           SKY/WX    TMP DP  RH WIND       PRES   REMARKS
PROVIDENCE     LGT RAIN  79  73  82 S14G24    30.04F
BLOCK ISLAND   CLOUDY    77  72  83 S14G21    30.05F
WESTERLY       CLOUDY    75  71  87 S14       30.04F

 IN MA

CITY           SKY/WX    TMP DP  RH WIND       PRES   REMARKS
BOSTON         PTSUNNY   84  69  60 S17G25    30.00F
WORCESTER      CLOUDY    80  68  66 S20G28    30.03F
WESTFIELD      PTSUNNY   82  72  71 S16       29.97F
PROVINCETOWN   SUNNY     81  70  69 S14G26    30.05S
NANTUCKET      CLOUDY    71  67  87 S12       30.08F FOG
$$

ANZ330-335-338-340-345-350-353-355-072000-
COASTAL MARINE OBSERVATIONS


STATION/POSITION TIME  SKY/WX   TEMP    WIND        PRES    VSBY  WAVE
                                AIR SEA DIR/SP/G                  HT/PER
                 (UTC)          (F)     (DEG/KT/KT) (MB)    (MI)  (FT/S)
NY HARB ENTRANCE 1850            75 74  170/ 12/ 14 1015.0          2/ 4
4S FIRE IS       1803               72                N/A           3/ 5
20S FIRE ISLAND  1850            73 71  180/ 12/ 14 1015.9          2/ 5
GREAT SOUTH BAY  1800            74 77  210/ 14/ 16   N/A
23SW MTP         1850            72 70  190/ 10/ 12 1016.8          2/ 9
HUDSON CANYON    NOT AVBL
KINGS POINT      1800            80 69  200/ 15/ 16 1014.8
CENTRAL LI SOUND NOT AVBL
EASTERN LI SOUND 1800            69 65  160/ 10/ 12   N/A
ROBBINS REEF     1800            79     160/ 19/ 20 1014.1
$$


>>>>>>>>>>>>>>>>>>>>>>>>>>>> KEY <<<<<<<<<<<<<<<<<<<<<<<<<<<
>                                                          <
>     SKY/WX - SKY CONDITION/PRESENT WEATHER               <
>     TMP    - TEMPERATURE IN FAHRENHEIT                   <
>     DP     - DEWPOINT IN FAHRENHEIT                      <
>     RH     - RELATIVE HUMIDITY IN PERCENT                <
>     WIND   - DIRECTION AND SPEED IN MPH                  <
>     PRES   - MEAN SEA LEVEL PRESSURE IN INCHES OF HG     <
>     WCI    - WIND CHILL INDEX                            <
>     VSB    - VISIBILITY IN MILES                         <
>     HX     - HEAT INDEX                                  <
>     TC     - TEMPERATURE IN CELSIUS                      <
>     VRB    - VARIABLE WIND DIRECTION                     <
>                                                          <
>>>>>>>>>>>>>>>>>>>>>>>>>>>> KEY <<<<<<<<<<<<<<<<<<<<<<<<<<<





USA.gov is the U.S. government's official web portal to all federal, state and local government web resources and services.